This is the latest recevied weather packets stored in our database for station/object CX2SA-13. If no packets are shown the sender has not sent any weather packets the latest 10 day(s).
| Time | Temp. | Humidity | Pressure | Rain* | Wind** | Luminosity | Snow |
|---|---|---|---|---|---|---|---|
| 1778362184 | 10° C | 90% | 1018.6 hPa | 0 mm | - | - | - |
| 1778361284 | 9.44° C | 91% | 1018.6 hPa | 0 mm | - | - | - |
| 1778360385 | 10° C | 89% | 1018.6 hPa | 0 mm | - | - | - |
| 1778359484 | 10° C | 88% | 1018.6 hPa | 0 mm | - | - | - |
| 1778358585 | 10° C | 88% | 1018.2 hPa | 0 mm | - | - | - |
| 1778357685 | 11.11° C | 83% | 1018.2 hPa | 0 mm | - | - | - |
| 1778356784 | 10.56° C | 83% | 1018.2 hPa | 0 mm | - | - | - |
| 1778355885 | 11.11° C | 80% | 1018.2 hPa | 0 mm | - | - | - |
| 1778354986 | 11.11° C | 80% | 1018.2 hPa | 0 mm | - | - | - |
| 1778354084 | 11.11° C | 81% | 1018.2 hPa | 0 mm | - | - | - |
| 1778353185 | 11.67° C | 79% | 1017.9 hPa | 0 mm | - | - | - |
| 1778352286 | 12.22° C | 78% | 1017.9 hPa | 0 mm | - | - | - |
| 1778351384 | 11.67° C | 80% | 1017.9 hPa | 0 mm | - | - | - |
| 1778350485 | 11.11° C | 82% | 1017.9 hPa | 0 mm | - | - | - |
| 1778349584 | 11.11° C | 85% | 1017.9 hPa | 0 mm | - | - | - |
| 1778348685 | 11.11° C | 87% | 1017.9 hPa | 0 mm | - | - | - |
| 1778347786 | 10.56° C | 86% | 1017.9 hPa | 0 mm | - | - | - |
| 1778346884 | 11.67° C | 79% | 1017.6 hPa | 0 mm | - | - | - |
| 1778345985 | 11.11° C | 82% | 1017.6 hPa | 0 mm | - | - | - |
| 1778345086 | 11.67° C | 80% | 1017.9 hPa | 0 mm | - | - | - |
| 1778344184 | 11.11° C | 83% | 1017.2 hPa | 0 mm | - | - | - |
| 1778343285 | 10.56° C | 84% | 1017.6 hPa | 0 mm | - | - | - |
| 1778342384 | 10.56° C | 86% | 1017.6 hPa | 0 mm | - | - | - |
| 1778341484 | 11.11° C | 83% | 1017.6 hPa | 0 mm | - | - | - |
| 1778340585 | 11.11° C | 83% | 1017.6 hPa | 0 mm | - | - | - |
* Rain since midnight (hover to see other rain measurements)
** Current wind speed in m/s (hover to see current wind gust speed)